This demonstration page uses our WeatherBlox Daily Observations layout. Learn more.

Left ArrowRight Arrow

Hourly Observations for January 8, 2022

Temp ( °F °C ) Dew Point ( °F °C ) Humidity (%) Winds ( mph kmh ) Pressure ( in mb ) Visibility ( mi km ) Precip ( " mm )
12:15 am 00:15 Clear 17 -8.3 12 -11 81 81 SSE 8 13 29.90 1012 10 16 0.00 0.00
12:35 am 00:35 Clear 17 -8.3 13 -10.8 82 82 S 9 15 29.88 1012 10 16 0.00 0.00
12:55 am 00:55 Clear 17 -8.6 12 -11 83 83 SSE 10 17 29.87 1011 10 16 0.00 0.00
1:15 am 01:15 Clear 17 -8.6 12 -11 83 83 SSE 7 11 29.87 1011 10 16 0.00 0.00
1:35 am 01:35 Clear 16 -9 12 -11.2 84 84 SSE 5 7 29.87 1012 10 16 0.00 0.00
1:55 am 01:55 Clear 16 -9.1 12 -11.1 86 86 SSE 9 15 29.86 1011 10 16 0.00 0.00
2:15 am 02:15 Clear 16 -9 12 -11 86 86 SSE 9 15 29.85 1011 10 16 0.00 0.00
2:35 am 02:35 Clear 15 -9.3 12 -11.3 86 86 S 12 19 29.85 1011 10 16 0.00 0.00
2:55 am 02:55 Clear 16 -8.9 12 -10.9 86 86 SSE 8 13 29.86 1011 10 16 0.00 0.00
3:15 am 03:15 Clear 16 -9 12 -11 86 86 SSE 6 9 29.85 1011 10 16 0.00 0.00
3:35 am 03:35 Clear 15 -9.3 12 -11.2 86 86 SSE 6 9 29.85 1011 10 16 0.00 0.00
3:55 am 03:55 Clear 15 -9.2 12 -11 87 87 SSE 7 11 29.85 1011 10 16 0.00 0.00
4:15 am 04:15 Clear 15 -9.2 12 -11 87 87 SSE 7 11 29.83 1010 10 16 0.00 0.00
4:35 am 04:35 Clear 16 -9 13 -10.6 88 88 SSE 6 9 29.84 1011 10 16 0.00 0.00
4:55 am 04:55 Clear 16 -9.1 13 -10.7 88 88 SSE 6 9 29.84 1011 10 16 0.00 0.00
5:15 am 05:15 Clear 16 -8.8 13 -10.5 88 88 S 7 11 29.84 1010 10 16 0.00 0.00
5:35 am 05:35 Clear 16 -9 13 -10.5 89 89 S 6 9 29.85 1011 10 16 0.00 0.00
5:55 am 05:55 Clear 15 -9.2 13 -10.7 89 89 S 3 6 29.85 1011 10 16 0.00 0.00
6:15 am 06:15 Clear 16 -9 13 -10.5 89 89 S 5 7 29.86 1011 10 16 0.00 0.00
6:35 am 06:35 Clear 16 -8.7 14 -10.2 89 89 SSW 5 7 29.87 1011 10 16 0.00 0.00
6:55 am 06:55 Clear 16 -8.9 13 -10.4 89 89 SSW 3 6 29.88 1012 10 16 0.00 0.00
7:15 am 07:15 Clear 16 -8.7 14 -10 90 90 SSW 3 6 29.88 1012 10 16 0.00 0.00
7:35 am 07:35 Clear 17 -8.6 14 -10 90 90 S 3 6 29.87 1011 10 16 0.00 0.00
7:55 am 07:55 Clear 17 -8.5 14 -9.8 90 90 Calm 29.87 1011 10 16 0.00 0.00
8:15 am 08:15 Sunny 17 -8.5 14 -10 89 89 Calm 29.88 1012 10 16 0.00 0.00
8:35 am 08:35 Sunny 18 -7.6 16 -9.1 89 89 Calm 29.88 1012 10 16 0.00 0.00
8:55 am 08:55 Sunny 20 -6.7 17 -8.5 87 87 WSW 6 9 29.88 1012 10 16 0.00 0.00
9:15 am 09:15 Sunny 21 -6.3 17 -8.5 85 85 WSW 5 7 29.87 1011 10 16 0.00 0.00
9:35 am 09:35 Sunny 21 -6 17 -8.2 85 85 SW 7 11 29.86 1011 10 16 0.00 0.00
9:55 am 09:55 Sunny 21 -6 17 -8.3 84 84 SW 3 6 29.85 1011 10 16 0.00 0.00
10:15 am 10:15 Sunny 22 -5.5 17 -8.1 82 82 W 7 11 29.89 1012 10 16 0.00 0.00
10:35 am 10:35 Sunny 23 -5.1 18 -8 80 80 W 9 15 29.88 1012 10 16 0.00 0.00
10:55 am 10:55 Sunny 24 -4.7 18 -7.9 79 79 W 7 11 29.87 1011 10 16 0.00 0.00
11:15 am 11:15 Sunny 25 -3.7 19 -7.5 75 75 W 5 7 29.85 1011 10 16 0.00 0.00
11:35 am 11:35 Sunny 28 -2 20 -6.9 69 69 WSW 5 7 29.82 1010 10 16 0.00 0.00
11:55 am 11:55 Sunny 31 -0.3 21 -6.1 65 65 WNW 5 7 29.82 1010 10 16 0.00 0.00
12:15 pm 12:15 Sunny 34 1.3 24 -4.6 65 65 WNW 7 11 29.78 1009 10 16 0.00 0.00
12:35 pm 12:35 Sunny 37 2.5 25 -3.8 64 64 NW 9 15 29.77 1008 10 16 0.00 0.00
12:55 pm 12:55 Sunny 38 3.5 27 -2.7 64 64 WNW 6 9 29.77 1008 10 16 0.00 0.00
1:15 pm 13:15 Sunny 40 4.7 29 -1.9 63 63 WNW 5 7 29.76 1008 10 16 0.00 0.00
1:35 pm 13:35 Sunny 42 5.5 30 -1.2 62 62 WNW 5 7 29.75 1008 10 16 0.00 0.00
1:55 pm 13:55 Sunny 43 6 30 -1 61 61 WNW 6 9 29.75 1007 10 16 0.00 0.00
2:15 pm 14:15 Sunny 45 7.2 31 -0.5 58 58 NW 9 15 29.75 1007 10 16 0.00 0.00
2:35 pm 14:35 Sunny 45 7 30 -1 57 57 NNW 14 22 29.76 1008 10 16 0.00 0.00
2:55 pm 14:55 Sunny 44 6.6 29 -1.5 57 57 NNW 12 19 29.78 1009 10 16 0.00 0.00
3:15 pm 15:15 Sunny 42 5.5 29 -1.5 61 61 NNW 8 13 29.80 1009 10 16 0.00 0.00
3:35 pm 15:35 Sunny 41 5 29 -1.4 64 64 NNW 10 17 29.83 1010 10 16 0.00 0.00
3:55 pm 15:55 Sunny 40 4.6 29 -1.5 65 65 NNW 8 13 29.84 1011 10 16 0.00 0.00
4:15 pm 16:15 Sunny 40 4.5 30 -1.3 66 66 NNW 10 17 29.86 1011 10 16 0.00 0.00
4:35 pm 16:35 Sunny 39 4.1 30 -1.2 69 69 NNW 7 11 29.89 1012 10 16 0.00 0.00
4:55 pm 16:55 Sunny 39 4 30 -1.2 69 69 NNW 10 17 29.91 1013 10 16 0.00 0.00
5:15 pm 17:15 Sunny 39 4.1 30 -1.2 69 69 N 12 19 29.94 1014 10 16 0.00 0.00
5:35 pm 17:35 Clear 43 6.1 30 -1.3 59 59 N 17 28 29.94 1014 10 16 0.00 0.00
5:55 pm 17:55 Clear 42 5.6 28 -2.2 58 58 N 18 30 29.97 1015 10 16 0.00 0.00
6:15 pm 18:15 Clear 41 5.2 26 -3.1 55 55 N 21 33 30.00 1016 10 16 0.00 0.00
6:35 pm 18:35 Clear 40 4.6 26 -3.5 56 56 N 20 31 30.02 1017 10 16 0.00 0.00
6:55 pm 18:55 Clear 40 4.5 25 -4 54 54 N 21 33 30.04 1017 10 16 0.00 0.00
7:15 pm 19:15 Partly Cloudy 39 4 24 -4.5 54 54 N 32 52 30.08 1019 10 16 0.00 0.00
7:35 pm 19:35 Partly Cloudy 39 3.7 23 -4.9 54 54 N 22 35 30.09 1019 10 16 0.00 0.00
7:55 pm 19:55 Cloudy 38 3.5 22 -5.5 52 52 NNE 24 39 30.10 1019 10 16 0.00 0.00
8:15 pm 20:15 Partly Cloudy 37 2.9 23 -5.2 56 56 N 22 35 30.14 1021 10 16 0.00 0.00
8:35 pm 20:35 Partly Cloudy 37 2.5 23 -4.9 59 59 N 20 31 30.17 1022 10 16 0.00 0.00
8:55 pm 20:55 Partly Cloudy 35 1.8 24 -4.5 63 63 N 14 22 30.20 1023 10 16 0.00 0.00
9:15 pm 21:15 Partly Cloudy 35 1.8 24 -4.5 63 63 N 14 22 30.21 1023 10 16 0.00 0.00
9:35 pm 21:35 Partly Cloudy 33 0.8 21 -6.1 60 60 N 13 20 30.24 1024 10 16 0.00 0.00
9:55 pm 21:55 Partly Cloudy 32 0 20 -6.6 62 62 N 17 28 30.27 1025 10 16 0.00 0.00
10:15 pm 22:15 Clear 31 -0.3 19 -7.1 61 61 N 21 33 30.28 1025 10 16 0.00 0.00
10:35 pm 22:35 Clear 30 -1 17 -8.4 58 58 N 26 43 30.32 1027 10 16 0.00 0.00
10:55 pm 22:55 Clear 28 -2.4 16 -9 61 61 N 21 33 30.35 1028 10 16 0.00 0.00
11:15 pm 23:15 Clear 26 -3.2 16 -9 65 65 N 20 31 30.38 1029 10 16 0.00 0.00
11:35 pm 23:35 Clear 25 -3.8 16 -9.1 67 67 N 17 28 30.40 1030 10 16 0.00 0.00
11:55 pm 23:55 Clear 25 -4.1 16 -9.1 69 69 N 16 26 30.42 1030 10 16 0.00 0.00

Powered by AerisWeather